#timestamp,LO_Frequency,Hit,StdDev 
1693288815.6,286047001.2,N
1693288835.4,286047000.1,N
1693288855.3,286047000.2,N
1693288875.1,286047000.0,N
1693288876.0,286047000.0,N
1693288895.8,286047000.0,N
1693288915.7,286046999.7,N
1693288935.5,286047000.9,N
1693288955.3,286047000.1,N
1693288975.2,286047001.1,N
1693288995.0,286047002.6,Y
1693288995.9,286047002.6,P
1693289015.8,286047000.4,N
1693289035.6,286047002.8,N
1693289055.4,286047000.2,N
1693289075.3,286047002.4,N
1693289095.1,286047000.0,N
1693289115.9,286047002.8,N
1693289135.7,286047000.8,N
1693289155.5,286047002.4,N
1693289175.4,286046999.7,N
1693289195.2,286047002.5,N
1693289215.0,286046999.8,N
1693289216.0,286046999.8,N
1693289235.8,286047002.7,N
1693289255.6,286046999.8,N
1693289275.5,286047002.7,N
1693289295.3,286047000.5,N
1693289315.1,286047002.7,N
1693289335.9,286047002.8,N
1693289355.7,286047002.1,N
1693289375.6,286047000.1,N
1693289395.4,286046999.7,N
1693289415.2,286046999.9,N
1693289435.1,286047002.8,N
1693289436.0,286047002.8,N
1693289455.8,286047000.2,N
1693289475.6,286046999.7,N
1693289495.5,286047002.7,N
1693289515.3,286046999.7,N
1693289535.2,286047000.2,N
1693289555.9,286047002.5,N
1693289575.7,286047000.4,N
1693289595.6,286046999.7,N
1693289615.4,286047000.5,N
1693289635.2,286047002.3,N
1693289655.1,286047000.2,N
1693289656.0,286047000.2,N
1693289675.8,286047002.7,N
1693289695.7,286046999.8,N
1693289715.5,286047002.2,N
1693289735.3,286047002.7,N
1693289755.2,286047002.6,N
1693289775.0,286047002.8,N
1693289775.9,286047002.8,N
1693289795.7,286047002.7,N
1693289815.6,286046999.8,N
1693289835.4,286047002.1,N
1693289855.3,286047000.4,N
1693289875.1,286047000.1,N
1693289876.0,286047000.1,N
1693289895.8,286046999.9,N
1693289915.7,286046999.7,N
1693289935.5,286047002.3,N
1693289955.3,286047002.3,N
1693289975.2,286047002.3,N
1693289995.0,286047001.4,N
1693289995.9,286047001.4,N
1693290015.8,286046999.8,N
1693290035.6,286047002.0,N
1693290055.4,286047002.6,N
1693290075.3,286047002.3,N
1693290095.1,286047002.3,N
1693290115.8,286047001.8,N
1693290135.7,286047002.5,N
1693290155.5,286047001.6,N
1693290175.4,286047002.6,N
1693290195.2,286047001.9,N
1693290215.0,286047002.5,N
1693290215.9,286047002.5,N
1693290235.8,286047002.2,N
1693290255.6,286047002.5,N
1693290275.5,286047004.0,Y
1693290295.3,286047000.0,P
1693290315.1,286047000.3,N
1693290335.9,286047000.8,N
1693290355.7,286046999.8,N
1693290375.5,286047000.4,N
1693290395.4,286047000.3,N
1693290415.2,286047000.9,N
1693290435.1,286046999.9,N
1693290436.0,286046999.9,N
1693290455.8,286047000.3,N
1693290475.6,286047000.1,N
1693290495.5,286047000.5,N
1693290515.3,286046999.8,N
1693290535.2,286046999.9,N
1693290555.9,286047002.4,Y
1693290575.7,286046999.9,P
1693290595.6,286047002.6,P
1693290615.4,286047002.4,N
1693290635.2,286047001.8,N
1693290655.1,286047002.3,N
1693290656.0,286047002.3,N
1693290675.8,286047001.7,N
1693290695.7,286047001.4,N
1693290715.5,286047001.7,N
1693290735.3,286047002.1,N
1693290755.2,286047001.7,N
1693290775.0,286047001.5,N
1693290775.9,286047001.5,N
1693290795.8,286047003.9,Y
1693290815.6,286047002.6,P
1693290835.4,286047002.2,P
1693290855.3,286047000.1,N
1693290875.1,286047002.6,N
1693290895.9,286047002.5,N
1693290915.7,286047002.0,N
1693290935.5,286046999.7,N
1693290955.4,286047002.5,N
1693290975.2,286046999.7,N
1693290995.0,286047001.6,N
1693290995.9,286047001.6,N
1693291015.8,286047002.2,N
1693291035.6,286047002.7,N
1693291055.5,286047002.2,N
1693291075.3,286047001.7,N
1693291095.1,286047000.1,N
1693291115.9,286047002.8,N
1693291135.7,286047000.3,N
1693291155.6,286047002.3,N
1693291175.4,286046999.7,N
1693291195.2,286047002.2,N
1693291215.1,286046999.9,N
1693291216.0,286046999.9,N
1693291235.8,286047002.4,N
1693291255.6,286046999.7,N
1693291275.5,286047001.3,N
1693291295.3,286047002.0,N
1693291315.2,286047002.7,N
1693291335.9,286047000.3,N
1693291355.7,286047002.2,N
1693291375.6,286047001.9,N
1693291395.4,286047002.5,N
1693291415.2,286046999.7,N
1693291435.1,286047002.7,N
1693291436.0,286047002.7,N
1693291455.8,286046999.9,N
1693291475.7,286047000.1,N
1693291495.5,286047000.3,N
1693291515.3,286046999.7,N
1693291535.2,286047002.4,N
1693291555.0,286047002.4,N
1693291555.9,286047002.4,N
1693291575.7,286047000.2,N
1693291595.6,286047002.2,N
1693291615.4,286046989.3,Y
1693291635.3,286046987.8,P
1693291655.1,286046987.5,N
1693291656.0,286046987.5,N
1693291675.8,286046985.9,N
1693291695.7,286046987.9,N
1693291715.5,286046988.1,N
1693291735.3,286046987.8,N
1693291755.2,286046990.0,N
1693291775.0,286046987.5,N
1693291775.9,286046987.5,Y
1693291795.8,286046998.4,P
1693291815.6,286046998.7,N
1693291835.4,286046999.5,N
1693291855.3,286046998.4,N
1693291875.1,286046999.0,N
1693291895.9,286047000.7,N
1693291915.7,286047000.3,N
1693291935.5,286047000.0,N
1693291955.4,286047001.2,N
1693291975.2,286047001.2,N
1693291995.0,286046998.2,N
1693291995.9,286046998.2,N
1693292015.8,286047001.2,N
1693292035.6,286047000.6,N
1693292055.5,286047000.9,N
1693292075.3,286046998.3,N
1693292095.1,286047000.8,N
1693292115.9,286046998.8,N
1693292135.7,286046999.9,N
1693292155.6,286047000.6,N
1693292175.4,286047000.1,N
1693292195.2,286047002.8,N
1693292215.1,286047002.3,N
1693292216.0,286047002.3,N
1693292235.8,286047002.3,N
1693292255.6,286047002.4,N
1693292275.5,286046999.7,N
1693292295.3,286047002.2,N
1693292315.2,286047002.7,N
1693292335.9,286047002.7,N
1693292355.7,286047000.2,N
1693292375.6,286047000.2,N
1693292395.4,286047002.6,N
